El Dorado, AR

4:22 AM CDT on July 21, 2017 (GMT -0500)
South Arkansas Regional At Goodwin

Weather History for KELD - September, 2012

Change the Weather History Date:

Wednesday, September 26, 2012

  Actual Average Record
Temperature  
Mean Temperature 75 °F 71 °F  
Max Temperature 86 °F 83 °F 101 °F (1930)
Min Temperature 64 °F 59 °F 42 °F (2001)
Degree Days  
Heating Degree Days 0 1  
Month to date heating degree days 3 7  
Since 1 July heating degree days 3 7  
Cooling Degree Days 10 7  
Month to date cooling degree days 265 276  
Year to date cooling degree days 2189 2003  
Growing Degree Days 25 (Base 50)    
Moisture  
Dew Point 67 °F    
Average Humidity 74    
Maximum Humidity 100    
Minimum Humidity 48    
Precipitation  
Precipitation 0.00 in 0.12 in 2.55 in (1993)
Month to date precipitation 5.19 2.64  
Year to date precipitation 31.88 37.19  
Snow  
Snow 0.00 in - - ()
Month to date snowfall 0.0  
Since 1 July snowfall 0.0  
Since 1 September snowfall 0.0  
Snow Depth 0.00 in    
Sea Level Pressure  
Sea Level Pressure 30.05 in    
Wind  
Wind Speed 5 mph (South)    
Max Wind Speed 14 mph    
Max Gust Speed 30 mph    
Visibility 7 miles    
Events      
T = Trace of Precipitation, MM = Missing Value Source: NWS Daily Summary

Daily Weather History Graph

Daily Weather History Graph

Search for Another Location

Airport or City:

Trip Planner

Search our weather history database for the weather conditions in past years. The results will help you decide how hot, cold, wet, or windy it might be!

Date:

Astronomy

Sep. 26, 2012 Rise Set
Actual Time 7:02 AM CDT 7:01 PM CDT
Civil Twilight 6:37 AM CDT 7:26 PM CDT
Nautical Twilight 6:08 AM CDT 7:55 PM CDT
Astronomical Twilight 5:39 AM CDT 8:24 PM CDT
Moon 4:54 PM CDT (9/26) 3:38 AM CDT (9/26)
Length of Visible Light 12h 48m
Length of Day
11h 59m
Waxing Gibbous, 88% of the Moon is Illuminated
Sep 26
Waxing Gibbous
Sep 29
Full
Oct 8
Last Quarter
Oct 15
New
Oct 21
First Quarter

Hourly Weather History & Observations

Time (CDT) Temp. Heat Index Dew Point Humidity Pressure Visibility Wind Dir Wind Speed Gust Speed Precip Events Conditions
12:53 AM 73.4 °F - 68.0 °F 83% 30.01 in 9.0 mi South 6.9 mph - N/A   Clear
1:53 AM 72.0 °F - 68.0 °F 87% 30.01 in 8.0 mi South 6.9 mph - N/A   Clear
2:53 AM 71.1 °F - 68.0 °F 90% 30.01 in 8.0 mi South 5.8 mph - N/A   Clear
3:53 AM 69.1 °F - 68.0 °F 96% 30.01 in 7.0 mi South 3.5 mph - N/A   Clear
4:53 AM 69.1 °F - 68.0 °F 96% 30.02 in 6.0 mi SSE 5.8 mph - N/A   Clear
5:53 AM 68.0 °F - 66.9 °F 96% 30.04 in 5.0 mi Calm Calm - N/A   Clear
6:53 AM 66.2 °F - 66.2 °F 100% 30.08 in 4.0 mi Calm Calm - N/A   Clear
7:17 AM 66.2 °F - 66.2 °F 100% 30.09 in 2.5 mi Calm Calm - N/A   Scattered Clouds
7:31 AM 66.2 °F - 66.2 °F 100% 30.09 in 1.8 mi Calm Calm - N/A   Mostly Cloudy
7:38 AM 68.0 °F - 68.0 °F 100% 30.09 in 2.0 mi SE 3.5 mph - N/A   Mostly Cloudy
7:53 AM 68.0 °F - 68.0 °F 100% 30.08 in 2.5 mi SSE 4.6 mph - N/A   Overcast
8:20 AM 69.8 °F - 68.0 °F 94% 30.09 in 3.0 mi South 4.6 mph - N/A   Overcast
8:34 AM 69.8 °F - 68.0 °F 94% 30.09 in 3.0 mi SSE 5.8 mph - N/A   Overcast
8:53 AM 71.1 °F - 69.1 °F 93% 30.08 in 4.0 mi SSE 8.1 mph - N/A   Mostly Cloudy
9:12 AM 73.4 °F - 69.8 °F 88% 30.09 in 5.0 mi South 5.8 mph - N/A   Scattered Clouds
9:53 AM 75.9 °F - 70.0 °F 82% 30.09 in 8.0 mi SSW 10.4 mph - N/A   Scattered Clouds
10:53 AM 79.0 °F - 68.0 °F 69% 30.08 in 10.0 mi South 12.7 mph 18.4 mph N/A   Clear
11:53 AM 82.0 °F 84.1 °F 66.0 °F 58% 30.07 in 10.0 mi South 12.7 mph - N/A   Clear
12:53 PM 82.9 °F 84.6 °F 64.9 °F 54% 30.05 in 10.0 mi South 6.9 mph - N/A   Clear
1:53 PM 84.9 °F 85.9 °F 63.0 °F 48% 30.04 in 10.0 mi SW 11.5 mph 17.3 mph N/A   Clear
2:53 PM 84.9 °F 86.6 °F 64.9 °F 51% 30.02 in 10.0 mi South 6.9 mph - N/A   Clear
3:53 PM 84.9 °F 87.1 °F 66.0 °F 53% 30.01 in 10.0 mi SE 8.1 mph - N/A   Partly Cloudy
4:53 PM 84.9 °F 86.6 °F 64.9 °F 51% 30.01 in 10.0 mi SSW 5.8 mph - N/A   Partly Cloudy
5:53 PM 84.0 °F 86.3 °F 66.0 °F 55% 30.02 in 10.0 mi SSE 4.6 mph - N/A   Clear
6:53 PM 78.1 °F - 69.1 °F 74% 30.03 in 10.0 mi Calm Calm - N/A   Clear
7:53 PM 72.0 °F - 68.0 °F 87% 30.04 in 10.0 mi Calm Calm - N/A   Clear
8:53 PM 73.9 °F - 66.9 °F 79% 30.05 in 10.0 mi SE 3.5 mph - N/A   Clear
9:53 PM 72.0 °F - 66.0 °F 81% 30.06 in 10.0 mi Calm Calm - N/A   Clear
10:53 PM 68.0 °F - 64.9 °F 90% 30.08 in 10.0 mi Calm Calm - N/A   Clear
11:53 PM 66.0 °F - 64.9 °F 96% 30.07 in 9.0 mi Calm Calm - N/A   Clear